[[{"header":{"parameterUnit":"m.s-1","parameterCategory":1,"la1":30.2991,"la2":30.254,"lo1":-89.0895,"lo2":-89.0444,"dy":0.0017,"dx":0.0017,"nx":28,"ny":28,"refTime":"2023-11-02T21:00:00:Z","depth":0,"parameterNumber":2,"parameterNumberName":"U-component_of_WINDS"},"data":[0,0,0,0,0,0,0,0,0,0,0,0,0,0,0,0,0,0,0,0,0,0,0,0,0,0,0,0,0,0,0,0,0,0,0,0,0,0,0,0,0,0,0,0,0,0,0,0,0,0,0,0,0,0,0,0,0,0,-3.8023,-3.8024,0,-3.8101,-3.8102,-3.8103,-3.7965,-3.7961,-3.7956,-3.7952,-3.8036,-3.8043,-3.8049,0,0,0,0,0,0,0,0,0,0,0,0,0,-3.7758,-3.7764,-3.8023,-3.8024,-3.8025,-3.8101,-3.8102,-3.8103,-3.7966,-3.7961,-3.7955,-3.795,-3.8034,-3.8042,-3.805,0,0,0,0,0,0,0,0,0,0,0,0,0,-3.7859,-3.7765,-3.8023,-3.7966,-3.7961,-3.8101,-3.8102,-3.8103,-3.7967,-3.796,-3.7954,-3.7947,-3.8031,-3.8041,-3.8051,-3.8251,0,0,-3.8081,-3.8085,0,0,0,0,0,0,0,0,-3.7853,-3.7868,-3.7973,-3.797,-3.7965,-3.8016,-3.8039,-3.8153,-3.7969,-3.7965,-3.7952,-3.7944,-3.8036,-3.8045,-3.8075,-3.8255,-3.8258,-3.8082,-3.8088,-3.8092,-3.8095,0,0,0,0,0,0,0,-3.7846,-3.7864,-3.8054,-3.7975,-3.797,-3.7937,-3.7944,-3.806,-3.8039,-3.7965,-3.7955,-3.7966,-3.8032,-3.8065,-3.8076,-3.826,-3.8081,-3.809,-3.8096,-3.81,-3.8606,-3.8613,0,0,0,0,0,0,-3.7846,-3.7859,-3.8051,-3.8056,-3.7891,-3.7947,-3.7955,-3.8007,-3.8037,-3.8035,-3.7972,-3.796,-3.8052,-3.8064,-3.8078,-3.8313,-3.8092,-3.8101,-3.8107,-3.8599,-3.8608,-3.8616,0,0,0,0,0,0,-3.7841,-3.7864,-3.8048,-3.7955,-3.7976,-3.7959,-3.8019,-3.8012,-3.8045,-3.8042,-3.8038,-3.801,-3.8047,-3.8064,-3.8208,-3.8314,-3.8105,-3.8114,-3.859,-3.8602,-3.8612,-3.8786,0,0,0,0,0,0,-3.7834,-3.7863,-3.7939,-3.7958,-3.7982,-3.8177,-3.8026,-3.8019,-3.8062,-3.8047,-3.8077,-3.8075,-3.8043,-3.8194,-3.8218,-3.8324,-3.8122,-3.858,-3.8595,-3.8608,-3.8771,-3.8802,-3.8828,0,0,0,0,0,-3.7825,-3.7986,-3.7943,-3.7967,-3.8075,-3.8183,-3.8197,-3.8156,-3.8071,-3.8147,-3.8145,-3.8074,-3.8299,-3.821,-3.8236,-3.8346,-3.8574,-3.8591,-3.8607,-3.8758,-3.8796,-3.8828,0,0,0,0,0,0,-3.7981,-3.7987,-3.794,-3.8112,-3.8148,-3.816,-3.8254,-3.8197,-3.8259,-3.8242,-3.8189,-3.8197,-3.8352,-3.8363,-3.8265,-3.8541,-3.8422,-3.8445,-3.8528,-3.8564,-3.8592,-3.8586,-3.813,0,0,0,0,0,-3.8035,-3.8122,-3.8123,-3.8274,-3.8295,-3.8272,-3.8317,-3.8282,-3.8318,-3.8333,-3.8341,-3.838,-3.8458,-3.8512,-3.8584,-3.8772,-3.8776,-3.886,-3.8889,-3.8913,-3.8933,-3.9032,-3.9069,-3.8672,-3.8672,-3.8671,0,0,-3.8149,-3.8163,-3.8221,-3.8306,-3.833,-3.8421,-3.8286,-3.8388,-3.8455,-3.8349,-3.8484,-3.8492,-3.8531,-3.8698,-3.8771,-3.8712,-3.9044,-3.8934,-3.8953,-3.8961,-3.9053,-3.9091,-3.9125,-3.8683,-3.8681,-3.8679,0,0,-3.8402,-3.8422,-3.8549,-3.8575,-3.8612,-3.8595,-3.8626,-3.8647,-3.8647,-3.8782,-3.8704,-3.8783,-3.8921,-3.8952,-3.8986,-3.9249,-3.9186,-3.9274,-3.9425,-3.9522,-3.9554,-3.9581,-3.9674,-3.9709,-3.9295,-3.9295,-3.9295,0,-3.8539,-3.8672,-3.8623,-3.873,-3.8769,-3.8675,-3.8804,-3.8833,-3.8893,-3.8922,-3.8854,-3.9024,-3.9044,-3.9215,-3.9279,-3.931,-3.9344,-3.9271,-3.9553,-3.958,-3.9605,-3.9693,-3.9729,-3.9306,-3.9304,-3.9303,-3.9302,0,-3.8838,-3.8931,-3.903,-3.9088,-3.9139,-3.9257,-3.9226,-3.9283,-3.9244,-3.9235,-3.9373,-3.9394,-3.9468,-3.9506,-3.9469,-3.9673,-3.9634,-3.9561,-3.9441,-3.9654,-3.9736,-3.977,-3.9321,-3.9317,-3.9314,-3.9311,0,0,-3.9193,-3.922,-3.9257,-3.9282,-3.9315,-3.9387,-3.95,-3.9571,-3.9621,-3.9666,-3.976,-3.9877,-3.9809,-3.9847,-3.9813,-3.9898,-4.0105,-3.9814,-3.9814,-3.9867,-4.0329,-4.0384,-4.0424,-4.0063,-4.0069,-4.0074,-4.0326,0,-3.9443,-3.9637,-3.9596,-3.9787,-3.9872,-3.9783,-3.9882,-3.9914,-3.9908,-3.9981,-3.9974,-4.0058,-3.9962,-3.9984,-4.0065,-4.0063,-4.0197,-4.0044,-4.015,-4.0155,-4.0142,-4.0467,-4.0525,-4.0762,-4.0357,-4.0363,-4.0367,0,-3.9762,-3.9816,-4.0015,-4.0033,-4.0067,-4.0157,-4.0218,-4.0288,-4.0322,-4.0312,-4.0354,-4.0303,-4.0416,-4.0294,-4.0449,-4.0346,-4.0387,-4.0393,-4.0401,-4.0409,-4.0273,-4.0483,-4.0836,-4.0871,-4.0417,-4.0413,-4.0409,0,-3.9999,-4.0122,-4.0256,-4.028,-4.0305,-4.037,-4.0384,-4.041,-4.0455,-4.0509,-4.0538,-4.0605,-4.0642,-4.0696,-4.0664,-4.0579,-4.0825,-4.0701,-4.082,-4.0821,-4.0876,-4.0872,-4.1239,-4.0904,-4.0903,-4.0902,-4.0902,0,-4.0283,-4.0408,-4.0363,-4.0446,-4.0584,-4.0535,-4.0673,-4.0676,-4.07,-4.0783,-4.0711,-4.079,-4.0744,-4.0819,-4.0796,-4.0927,-4.0945,-4.094,-4.0932,-4.0946,-4.0947,-4.0972,-4.0955,-4.0912,-4.091,-4.0908,-4.0906,0,-4.0572,-4.0547,-4.0687,-4.0698,-4.0704,-4.0805,-4.0815,-4.0892,-4.088,-4.0986,-4.1008,-4.099,-4.1075,-4.1049,-4.1142,-4.1125,-4.1292,-4.1264,-4.128,-4.1273,-4.1393,-4.1382,-4.1788,-4.1839,-4.1472,-4.1475,-4.1478,0,-4.0754,-4.0848,-4.0869,-4.0918,-4.0936,-4.1017,-4.1061,-4.1017,-4.1067,-4.1112,-4.1184,-4.1262,-4.1322,-4.1463,-4.1459,-4.1529,-4.1501,-4.1639,-4.1512,-4.1522,-4.1502,-4.1497,-4.1505,-4.1665,-4.1669,-4.1672,-4.1675,0,-4.1081,-4.1063,-4.1129,-4.1192,-4.1247,-4.1295,-4.1336,-4.1381,-4.1339,-4.1399,-4.1484,-4.1531,-4.1624,-4.1703,-4.1766,-4.178,-4.1722,-4.1715,-4.1746,-4.1761,-4.1766,-4.1764,-4.1349,-4.1706,-4.1703,-4.1701,-4.1699,-4.1698,-4.1321,-4.1399,-4.1426,-4.1502,-4.1528,-4.1568,-4.164,-4.1637,-4.1707,-4.1778,-4.1748,-4.1846,-4.1877,-4.1955,-4.1979,-4.2055,-4.2002,-4.2048,-4.2059,-4.2071,-4.2085,-4.1755,-4.2067,-4.2066,-4.2065,-4.2064,-4.2063,0,-4.1642,-4.1654,-4.1725,-4.1784,-4.1844,-4.1781,-4.1823,-4.1878,-4.1965,-4.1998,-4.2058,-4.2155,-4.2231,-4.2233,-4.2304,-4.2364,-4.2339,-4.2384,-4.2379,-4.2383,-4.2129,-4.2094,-4.2404,-4.2404,-4.2404,-4.2403,-4.2403,-4.2403,-4.1816,-4.1945,-4.1931,-4.2072,-4.2084,-4.2178,-4.2207,-4.2243,-4.2269,-4.2381,-4.2442,-4.2442,-4.2463,-4.2534,-4.2601,-4.26,-4.2629,-4.2684,-4.2673,-4.2435,-4.2401,-4.2369,-4.2336,-4.2691,-4.2692,-4.292,-4.2922,-4.2924]},{"header":{"parameterUnit":"m.s-1","parameterCategory":1,"la1":30.2991,"la2":30.254,"lo1":-89.0895,"lo2":-89.0444,"dy":0.0017,"dx":0.0017,"nx":28,"ny":28,"refTime":"2023-11-02T21:00:00:Z","depth":0,"parameterNumber":3,"parameterNumberName":"V-component_of_WINDS"},"data":[0,0,0,0,0,0,0,0,0,0,0,0,0,0,0,0,0,0,0,0,0,0,0,0,0,0,0,0,0,0,0,0,0,0,0,0,0,0,0,0,0,0,0,0,0,0,0,0,0,0,0,0,0,0,0,0,0,0,-1.8666,-1.8666,0,-1.8637,-1.8637,-1.8636,-1.8703,-1.8705,-1.8707,-1.8709,-1.8673,-1.867,-1.8667,0,0,0,0,0,0,0,0,0,0,0,0,0,-1.8771,-1.8769,-1.8666,-1.8666,-1.8665,-1.8637,-1.8637,-1.8636,-1.8703,-1.8705,-1.8708,-1.871,-1.8674,-1.867,-1.8667,0,0,0,0,0,0,0,0,0,0,0,0,0,-1.8732,-1.8768,-1.8666,-1.8695,-1.8698,-1.8637,-1.8637,-1.8636,-1.8702,-1.8705,-1.8709,-1.8712,-1.8675,-1.867,-1.8666,-1.8574,0,0,-1.8652,-1.865,0,0,0,0,0,0,0,0,-1.8734,-1.8728,-1.8691,-1.8693,-1.8696,-1.8677,-1.866,-1.8615,-1.8701,-1.87,-1.8709,-1.8713,-1.8671,-1.8667,-1.8654,-1.8572,-1.8571,-1.8652,-1.8649,-1.8647,-1.8646,0,0,0,0,0,0,0,-1.8737,-1.873,-1.8655,-1.8691,-1.8693,-1.8707,-1.8705,-1.8652,-1.8668,-1.8701,-1.8705,-1.8701,-1.8673,-1.8659,-1.8654,-1.857,-1.8652,-1.8648,-1.8645,-1.8644,-1.8405,-1.8401,0,0,0,0,0,0,-1.8737,-1.8732,-1.8655,-1.8654,-1.8724,-1.8703,-1.8701,-1.868,-1.8669,-1.867,-1.8699,-1.8705,-1.8665,-1.8659,-1.8653,-1.8539,-1.8647,-1.8643,-1.8641,-1.8408,-1.8404,-1.84,0,0,0,0,0,0,-1.8739,-1.873,-1.8657,-1.8694,-1.8686,-1.8698,-1.8674,-1.8677,-1.8663,-1.8667,-1.867,-1.8681,-1.8667,-1.8659,-1.8592,-1.8539,-1.8641,-1.8637,-1.8413,-1.8407,-1.8402,-1.8314,0,0,0,0,0,0,-1.8742,-1.873,-1.8697,-1.8693,-1.8684,-1.8598,-1.8671,-1.8675,-1.8656,-1.8664,-1.8652,-1.8653,-1.8669,-1.8598,-1.8588,-1.8535,-1.8634,-1.8417,-1.841,-1.8404,-1.8321,-1.8306,-1.8293,0,0,0,0,0,-1.8745,-1.8673,-1.8695,-1.8685,-1.8643,-1.8595,-1.859,-1.8612,-1.8652,-1.8617,-1.8619,-1.8653,-1.8548,-1.8591,-1.858,-1.8524,-1.8421,-1.8412,-1.8404,-1.8328,-1.8309,-1.8293,0,0,0,0,0,0,-1.8669,-1.8673,-1.8697,-1.8622,-1.8608,-1.8607,-1.8563,-1.8592,-1.8564,-1.8572,-1.8599,-1.8595,-1.8521,-1.8518,-1.8565,-1.8432,-1.8491,-1.848,-1.8436,-1.8419,-1.8405,-1.8404,-1.863,0,0,0,0,0,-1.8644,-1.8607,-1.8612,-1.8545,-1.8537,-1.8551,-1.8532,-1.855,-1.8535,-1.8529,-1.8526,-1.8509,-1.8471,-1.8446,-1.8412,-1.8323,-1.8318,-1.8279,-1.8265,-1.8253,-1.8241,-1.8188,-1.8169,-1.8373,-1.8373,-1.8373,0,0,-1.859,-1.8588,-1.8563,-1.8529,-1.8521,-1.8478,-1.8546,-1.85,-1.8467,-1.8521,-1.8456,-1.8454,-1.8436,-1.8356,-1.8321,-1.835,-1.8184,-1.8243,-1.8233,-1.8227,-1.8177,-1.8158,-1.814,-1.8367,-1.8368,-1.8369,0,0,-1.847,-1.8467,-1.8408,-1.8398,-1.8385,-1.8394,-1.838,-1.8374,-1.8375,-1.8311,-1.8349,-1.8311,-1.8248,-1.8231,-1.8215,-1.8087,-1.8115,-1.8075,-1.7998,-1.7946,-1.7929,-1.7915,-1.7863,-1.7845,-1.8065,-1.8065,-1.8065,0,-1.8404,-1.8344,-1.8374,-1.8324,-1.8306,-1.8355,-1.8293,-1.8282,-1.8256,-1.8241,-1.8276,-1.8194,-1.8186,-1.81,-1.8068,-1.8056,-1.8036,-1.8074,-1.793,-1.7916,-1.7903,-1.7853,-1.7834,-1.806,-1.806,-1.8061,-1.8061,0,-1.8261,-1.8219,-1.8173,-1.8148,-1.8126,-1.807,-1.8088,-1.8061,-1.8081,-1.8086,-1.8018,-1.801,-1.7973,-1.7956,-1.7975,-1.7871,-1.7888,-1.7926,-1.7985,-1.7878,-1.7831,-1.7813,-1.8052,-1.8054,-1.8055,-1.8057,0,0,-1.8088,-1.8081,-1.8063,-1.805,-1.8038,-1.8004,-1.795,-1.7916,-1.7889,-1.7871,-1.7821,-1.7766,-1.78,-1.7781,-1.7799,-1.7754,-1.7645,-1.7796,-1.7796,-1.7763,-1.7522,-1.7489,-1.7467,-1.7666,-1.7663,-1.766,-1.7521,0,-1.7964,-1.7871,-1.7896,-1.7802,-1.776,-1.7806,-1.7758,-1.7743,-1.7746,-1.7709,-1.7713,-1.767,-1.7722,-1.771,-1.7668,-1.7667,-1.7596,-1.7679,-1.7615,-1.7612,-1.7611,-1.7444,-1.7409,-1.7278,-1.7504,-1.7501,-1.7499,0,-1.7807,-1.7782,-1.7683,-1.7675,-1.7658,-1.7615,-1.7582,-1.7549,-1.7532,-1.7537,-1.7515,-1.7541,-1.7483,-1.7547,-1.7463,-1.7518,-1.7494,-1.749,-1.7485,-1.7475,-1.7544,-1.7422,-1.7238,-1.7215,-1.7472,-1.7474,-1.7476,0,-1.7682,-1.7625,-1.7557,-1.7546,-1.7536,-1.7503,-1.7497,-1.7484,-1.746,-1.7433,-1.7416,-1.7382,-1.7361,-1.7332,-1.7346,-1.7392,-1.7257,-1.7324,-1.7255,-1.7253,-1.7219,-1.7219,-1.7021,-1.7215,-1.7215,-1.7215,-1.7216,0,-1.7537,-1.7473,-1.7501,-1.7458,-1.7387,-1.7415,-1.7343,-1.7342,-1.7329,-1.7285,-1.7325,-1.7281,-1.7306,-1.7263,-1.7275,-1.72,-1.7192,-1.7191,-1.7193,-1.7183,-1.7182,-1.7163,-1.7169,-1.721,-1.7211,-1.7212,-1.7213,0,-1.7383,-1.74,-1.7328,-1.7325,-1.7323,-1.727,-1.7265,-1.7224,-1.7231,-1.7174,-1.7162,-1.7171,-1.7123,-1.7136,-1.7084,-1.7091,-1.6994,-1.7012,-1.7,-1.7001,-1.6929,-1.6933,-1.6706,-1.6674,-1.6895,-1.6892,-1.6891,0,-1.7287,-1.7238,-1.723,-1.7204,-1.7195,-1.7153,-1.7129,-1.7155,-1.7128,-1.7104,-1.7063,-1.7019,-1.6985,-1.6905,-1.6904,-1.6863,-1.6876,-1.6799,-1.6869,-1.6859,-1.6866,-1.6865,-1.6858,-1.6782,-1.678,-1.6778,-1.6776,0,-1.711,-1.7121,-1.7086,-1.7053,-1.7023,-1.6998,-1.6976,-1.6952,-1.6976,-1.6943,-1.6895,-1.6868,-1.6814,-1.6767,-1.6729,-1.672,-1.6748,-1.6755,-1.6736,-1.6721,-1.6713,-1.6709,-1.6954,-1.6759,-1.676,-1.6762,-1.6763,-1.6763,-1.6977,-1.6935,-1.6921,-1.688,-1.6867,-1.6845,-1.6804,-1.6807,-1.6768,-1.6726,-1.6745,-1.6687,-1.6668,-1.662,-1.6606,-1.6559,-1.6587,-1.6561,-1.6553,-1.6544,-1.6531,-1.6727,-1.6553,-1.6553,-1.6554,-1.6554,-1.6555,0,-1.6797,-1.6791,-1.6753,-1.6721,-1.6687,-1.6724,-1.67,-1.6668,-1.6618,-1.6599,-1.6564,-1.6506,-1.6461,-1.6457,-1.6413,-1.6376,-1.6388,-1.6363,-1.6362,-1.6358,-1.6512,-1.653,-1.6353,-1.6353,-1.6353,-1.6353,-1.6353,-1.6353,-1.6699,-1.6627,-1.6635,-1.6555,-1.6549,-1.6495,-1.6477,-1.6456,-1.644,-1.6374,-1.6337,-1.6337,-1.6322,-1.6277,-1.6235,-1.6235,-1.6213,-1.6181,-1.6185,-1.6328,-1.6348,-1.6367,-1.6383,-1.6179,-1.6178,-1.6034,-1.6033,-1.6032]}]]